History for Miami, FL

Thursday, February 28, 2013 — View Current Conditions

Jump to Data:

Date:
Airport Code:
Recently Viewed Airport Codes: KMIA
Daily Summary
  Actual Average Record
Temperature
Mean Temperature 68°F 71°F  
Max Temperature 74°F 79°F 89°F (1956)
Min Temperature 62°F 64°F 37°F (1942)
Degree Days
Heating Degree Days 0 1  
Month to date heating degree days 16 28  
Since 1 July heating degree days 36 116  
Cooling Degree Days 3 7  
Month to date cooling degree days 210 171  
Year to date cooling degree days 479 322  
Growing Degree Days 18 (Base 50)    
Moisture
Dew Point 54°F    
Average Humidity 70    
Maximum Humidity 93    
Minimum Humidity 47    
Precipitation
Precipitation 0.01 in 0.08 in 2.32 in (1933)
Month to date precipitation 1.85 2.25  
Year to date precipitation 2.39 3.87  
Snow
Snow 0.00 in in in ()
Month to date snowfall 0.0  
Since 1 July snowfall 0.0  
Snow Depth 0.00 in    
Sea Level Pressure
Sea Level Pressure 29.97 in    
Wind
Wind Speed 7 mph (WNW)    
Max Wind Speed 14 mph    
Max Gust Speed 25 mph    
Visibility 10 miles    
Events      
T = Trace of Precipitation, MM = Missing Value Source: NWS Daily Summary

Show full METARS

(help) - Comma Delimited File

Hourly Observations

Time(EST) Temperature Dew Point Humidity Sea Level Pressure Visibility Wind Direction Wind Speed Gust Speed Precipitation Events Conditions
12:53 AM 66.9°F 64.9°F 93% 29.97 in 7.0 miles WNW 4.6 mph - 0.00 in   Overcast
1:03 AM 66.2°F 64.4°F 94% 29.97 in 7.0 miles Variable 4.6 mph - N/A   Overcast
1:53 AM 66.9°F 64.0°F 90% 29.95 in 7.0 miles WNW 4.6 mph - N/A   Overcast
2:53 AM 66.9°F 64.0°F 90% 29.93 in 10.0 miles WNW 4.6 mph - 0.01 in   Overcast
3:53 AM 66.0°F 63.0°F 90% 29.94 in 9.0 miles WNW 5.8 mph - N/A   Mostly Cloudy
4:53 AM 64.9°F 60.1°F 84% 29.96 in 10.0 miles NW 9.2 mph 18.4 mph N/A   Overcast
5:53 AM 63.0°F 55.0°F 75% 29.98 in 10.0 miles NNW 8.1 mph 16.1 mph N/A   Overcast
6:53 AM 62.1°F 53.1°F 72% 29.98 in 10.0 miles NW 8.1 mph 16.1 mph N/A   Overcast
7:53 AM 62.1°F 54.0°F 75% 30.00 in 10.0 miles NW 11.5 mph 16.1 mph N/A   Mostly Cloudy
8:53 AM 62.6°F 53.6°F 72% 30.01 in 10.0 miles NW 8.1 mph - N/A   Overcast
9:53 AM 63.0°F 53.1°F 70% 30.02 in 10.0 miles NNW 6.9 mph - N/A   Overcast
10:53 AM 66.9°F 52.0°F 59% 30.03 in 10.0 miles WNW 8.1 mph - N/A   Mostly Cloudy
11:53 AM 68.0°F 51.1°F 55% 30.01 in 10.0 miles NW 4.6 mph - N/A   Mostly Cloudy
12:53 PM 72.0°F 50.0°F 46% 29.99 in 10.0 miles Variable 4.6 mph - N/A   Mostly Cloudy
1:53 PM 72.0°F 50.0°F 46% 29.96 in 10.0 miles WNW 4.6 mph - N/A   Mostly Cloudy
2:53 PM 70.0°F 51.1°F 51% 29.95 in 10.0 miles WNW 10.4 mph - N/A   Overcast
3:53 PM 70.0°F 50.0°F 49% 29.95 in 10.0 miles NW 6.9 mph - N/A   Overcast
4:53 PM 69.1°F 50.0°F 51% 29.94 in 10.0 miles Variable 3.5 mph - N/A   Overcast
5:53 PM 69.1°F 48.9°F 49% 29.95 in 10.0 miles WNW 6.9 mph - N/A   Overcast
6:53 PM 68.0°F 50.0°F 52% 29.96 in 10.0 miles WNW 5.8 mph - N/A   Mostly Cloudy
7:53 PM 68.0°F 48.9°F 50% 29.97 in 10.0 miles West 3.5 mph - N/A   Mostly Cloudy
8:53 PM 68.0°F 46.0°F 45% 29.97 in 10.0 miles West 4.6 mph - N/A   Mostly Cloudy
9:53 PM 66.9°F 48.9°F 52% 29.97 in 10.0 miles WNW 3.5 mph - N/A   Mostly Cloudy
10:53 PM 66.2°F 48.2°F 52% 29.97 in 10.0 miles West 3.5 mph - N/A   Overcast
11:53 PM 66.9°F 53.1°F 61% 29.96 in 10.0 miles WNW 6.9 mph - N/A   Overcast